DW7210 Weather Reports


time (UTC)temp
C
wind
direction
speed
KPH
gust
KPH
rain 1hr
cm
rain 24hr
cm
rain mn
cm
humidity
%
barometer
mb
20260507213417 26 135 9.7 16.1 0.00 0.00 0.00 15 1015.6
20260507212417 26 225 8.0 19.3 0.00 0.00 0.00 15 1015.4
20260507211417 26 0.0 1.6 0.00 0.00 0.00 15 1015.5
20260507210417 26 135 9.7 11.3 0.00 0.00 0.00 15 1015.3
20260507205417 26 135 9.7 14.5 0.00 0.00 0.00 16 1015.5
20260507204417 26 113 6.4 11.3 0.00 0.00 0.00 17 1015.9
20260507203437 25 158 6.4 12.9 0.00 0.00 0.00 17 1015.7
20260507202417 25 135 9.7 14.5 0.00 0.00 0.00 17 1015.9
20260507201417 26 0.0 1.6 0.00 0.00 0.00 17 1016.7
20260507200417 25 113 3.2 6.4 0.00 0.00 0.00 18 1016.6
20260507195417 25 135 8.0 11.3 0.00 0.00 0.00 18 1016.9
20260507194417 25 158 11.3 14.5 0.00 0.00 0.00 18 1017.3
20260507193417 24 113 4.8 8.0 0.00 0.00 0.00 20 1017.3
20260507192417 24 113 11.3 16.1 0.00 0.00 0.00 21 1017.4
20260507191417 24 158 12.9 16.1 0.00 0.00 0.00 20 1017.6
20260507190437 23 135 11.3 17.7 0.00 0.00 0.00 20 1017.4
20260507185417 23 158 11.3 16.1 0.00 0.00 0.00 20 1017.5
20260507184417 23 135 12.9 19.3 0.00 0.00 0.00 21 1017.9
20260507183417 24 90 9.7 12.9 0.00 0.00 0.00 22 1018.1
20260507182417 24 135 6.4 11.3 0.00 0.00 0.00 21 1018.2
20260507181417 24 0 3.2 8.0 0.00 0.00 0.00 22 1018.3
20260507180417 23 90 3.2 8.0 0.00 0.00 0.00 20 1018.3
20260507175417 22 90 4.8 9.7 0.00 0.00 0.00 23 1018.2
20260507174437 23 0.0 6.4 0.00 0.00 0.00 23 1018.7
20260507173417 22 158 4.8 6.4 0.00 0.00 0.00 24 1018.8
20260507172417 21 135 9.7 19.3 0.00 0.00 0.00 23 1018.6
20260507171437 21 113 9.7 16.1 0.00 0.00 0.00 23 1018.6
20260507170437 22 113 4.8 8.0 0.00 0.00 0.00 23 1018.8
20260507165417 21 90 4.8 9.7 0.00 0.00 0.00 23 1018.9
20260507164417 21 113 1.6 3.2 0.00 0.00 0.00 23 1019.0
20260507163417 21 90 8.0 12.9 0.00 0.00 0.00 25 1018.8
20260507162417 20 90 6.4 9.7 0.00 0.00 0.00 26 1019.0
20260507161417 20 158 6.4 11.3 0.00 0.00 0.00 26 1019.1
20260507160517 20 135 4.8 9.7 0.00 0.00 0.00 26 1019.1
20260507155417 20 113 6.4 11.3 0.00 0.00 0.00 26 1019.2
20260507154417 20 135 6.4 9.7 0.00 0.00 0.00 26 1019.2
20260507153437 19 0.0 0.0 0.00 0.00 0.00 25 1019.2
20260507152417 19 0.0 1.6 0.00 0.00 0.00 25 1019.3
20260507151417 18 0.0 0.0 0.00 0.00 0.00 26 1019.3
20260507150417 17 0.0 0.0 0.00 0.00 0.00 28 1018.7
20260507145417 17 315 3.2 6.4 0.00 0.00 0.00 27 1018.8
20260507144417 17 0.0 0.0 0.00 0.00 0.00 26 1019.1
20260507143417 16 0.0 0.0 0.00 0.00 0.00 25 1019.0
20260507142417 17 0.0 3.2 0.00 0.00 0.00 25 1019.1
20260507141417 16 0.0 0.0 0.00 0.00 0.00 26 1019.4
20260507140417 16 0.0 1.6 0.00 0.00 0.00 27 1019.0
20260507135437 15 0.0 0.0 0.00 0.00 0.00 27 1018.8
20260507134437 15 0.0 0.0 0.00 0.00 0.00 27 1019.2
20260507133417 13 0.0 0.0 0.00 0.00 0.00 28 1018.8
20260507132417 13 0.0 0.0 0.00 0.00 0.00 28 1018.4
20260507131417 12 0.0 0.0 0.00 0.00 0.00 30 1018.3
20260507130457 12 0.0 0.0 0.00 0.00 0.00 28 1018.3
20260507125417 12 0.0 0.0 0.00 0.00 0.00 27 1018.1
20260507124417 13 0.0 0.0 0.00 0.00 0.00 27 1018.2
20260507123418 13 0.0 0.0 0.00 0.00 0.00 25 1018.0
20260507122417 13 0.0 0.0 0.00 0.00 0.00 25 1018.1
20260507121417 13 113 1.6 3.2 0.00 0.00 0.00 24 1018.2
20260507120417 13 135 4.8 6.4 0.00 0.00 0.00 25 1018.1
20260507115417 13 135 1.6 4.8 0.00 0.00 0.00 25 1018.0
20260507114417 13 158 1.6 3.2 0.00 0.00 0.00 24 1017.9
20260507113417 13 0.0 0.0 0.00 0.00 0.00 25 1017.5
20260507112457 13 90 3.2 4.8 0.00 0.00 0.00 25 1017.9
20260507111417 13 0.0 0.0 0.00 0.00 0.00 25 1017.7
20260507110417 13 0.0 0.0 0.00 0.00 0.00 24 1017.7
20260507105417 14 0.0 0.0 0.00 0.00 0.00 23 1018.0
20260507104417 14 338 1.6 3.2 0.00 0.00 0.00 23 1017.7
20260507103437 15 68 1.6 3.2 0.00 0.00 0.00 22 1018.0
20260507102417 15 0.0 0.0 0.00 0.00 0.00 22 1018.0
20260507101417 14 0.0 0.0 0.00 0.00 0.00 22 1017.7
20260507100437 13 203 1.6 3.2 0.00 0.00 0.00 26 1017.4
20260507095457 14 0.0 0.0 0.00 0.00 0.00 24 1017.4
20260507094417 15 0.0 0.0 0.00 0.00 0.00 24 1017.8
20260507093417 15 68 3.2 4.8 0.00 0.00 0.00 23 1017.6
20260507092417 15 0.0 0.0 0.00 0.00 0.00 22 1017.7
20260507091416 14 0.0 0.0 0.00 0.00 0.00 24 1017.5
20260507090417 13 0.0 0.0 0.00 0.00 0.00 24 1017.4
20260507085417 14 0.0 0.0 0.00 0.00 0.00 23 1017.5
20260507084417 15 0.0 0.0 0.00 0.00 0.00 22 1017.5
20260507083436 15 0.0 0.0 0.00 0.00 0.00 22 1017.5
20260507082416 15 0.0 0.0 0.00 0.00 0.00 22 1017.6
20260507081417 15 0.0 0.0 0.00 0.00 0.00 21 1017.6
20260507080416 16 0.0 0.0 0.00 0.00 0.00 20 1018.0
20260507075417 16 0.0 0.0 0.00 0.00 0.00 19 1017.9
20260507074437 16 0.0 0.0 0.00 0.00 0.00 19 1018.0
20260507073417 17 45 3.2 4.8 0.00 0.00 0.00 18 1018.3
20260507072416 17 23 1.6 4.8 0.00 0.00 0.00 18 1018.4
20260507071417 17 23 1.6 4.8 0.00 0.00 0.00 18 1018.1
20260507070437 17 45 4.8 4.8 0.00 0.00 0.00 17 1018.1
20260507065416 16 23 3.2 6.4 0.00 0.00 0.00 17 1018.0
20260507064416 16 0.0 0.0 0.00 0.00 0.00 16 1017.9
20260507063436 17 0.0 0.0 0.00 0.00 0.00 16 1017.9
20260507062416 17 0.0 0.0 0.00 0.00 0.00 16 1017.9
20260507061417 17 0.0 0.0 0.00 0.00 0.00 15 1018.0
20260507060417 17 23 1.6 6.4 0.00 0.00 0.00 15 1017.7
20260507055417 17 45 3.2 4.8 0.00 0.00 0.00 16 1017.6
20260507054417 17 0.0 0.0 0.00 0.00 0.00 16 1017.2
20260507053417 18 0 3.2 4.8 0.00 0.00 0.00 15 1017.6
20260507052417 18 0.0 0.0 0.00 0.00 0.00 15 1017.5
20260507051417 18 0.0 0.0 0.00 0.00 0.00 15 1016.8
20260507050417 18 0.0 0.0 0.00 0.00 0.00 15 1017.0
20260507045417 18 0.0 0.0 0.00 0.00 0.00 15 1016.9
20260507044417 18 0.0 0.0 0.00 0.00 0.00 16 1016.8
20260507043417 18 0.0 0.0 0.00 0.00 0.00 16 1016.8
20260507042437 18 0.0 0.0 0.00 0.00 0.00 16 1016.7
20260507041417 18 0.0 1.6 0.00 0.00 0.00 16 1016.6
20260507040457 18 0.0 0.0 0.00 0.00 0.00 17 1016.5
20260507035417 18 23 4.8 8.0 0.00 0.00 0.00 17 1016.4
20260507034417 19 0.0 0.0 0.00 0.00 0.00 17 1016.4
20260507033417 19 0.0 0.0 0.00 0.00 0.00 18 1016.2
20260507032417 19 0.0 0.0 0.00 0.00 0.00 18 1016.1
20260507031417 20 0.0 0.0 0.00 0.00 0.00 18 1015.7
20260507030417 20 45 1.6 6.4 0.00 0.00 0.00 18 1015.9
20260507025417 20 0.0 0.0 0.00 0.00 0.00 18 1015.7
20260507024417 20 0.0 0.0 0.00 0.00 0.00 18 1015.4
20260507023437 20 0.0 0.0 0.00 0.00 0.00 17 1015.3
20260507022437 21 0.0 4.8 0.00 0.00 0.00 17 1015.2
20260507021417 21 315 1.6 4.8 0.00 0.00 0.00 17 1015.0
20260507020416 21 315 4.8 6.4 0.00 0.00 0.00 17 1014.9
20260507015417 22 0.0 0.0 0.00 0.00 0.00 17 1014.8
20260507014417 22 315 6.4 9.7 0.00 0.00 0.00 17 1014.3
20260507013417 22 315 4.8 9.7 0.00 0.00 0.00 16 1014.6
20260507012417 22 293 8.0 12.9 0.00 0.00 0.00 16 1014.6
20260507011437 23 315 14.5 17.7 0.00 0.00 0.00 16 1014.1
20260507010417 23 315 3.2 4.8 0.00 0.00 0.00 16 1014.4
20260507005417 23 293 6.4 11.3 0.00 0.00 0.00 16 1014.0
20260507004416 23 293 16.1 19.3 0.00 0.00 0.00 15 1013.9
20260507003417 23 315 8.0 12.9 0.00 0.00 0.00 15 1014.0
20260507002417 23 293 9.7 16.1 0.00 0.00 0.00 16 1014.1
20260507001417 23 293 11.3 19.3 0.00 0.00 0.00 16 1014.0
20260507000417 23 270 3.2 8.0 0.00 0.00 0.00 16 1014.0
20260506235436 24 293 8.0 14.5 0.00 0.00 0.00 16 1014.3
20260506234416 24 293 16.1 24.1 0.00 0.00 0.00 16 1014.1
20260506233417 24 293 9.7 16.1 0.00 0.00 0.00 16 1014.2
20260506232417 24 315 8.0 17.7 0.00 0.00 0.00 16 1014.2
20260506231417 23 315 9.7 17.7 0.00 0.00 0.00 16 1014.0
20260506230416 24 293 6.4 29.0 0.00 0.00 0.00 16 1013.9
20260506225416 25 293 8.0 11.3 0.00 0.00 0.00 15 1014.2
20260506224417 24 248 9.7 16.1 0.00 0.00 0.00 16 1014.3
20260506223416 23 315 8.0 14.5 0.00 0.00 0.00 16 1014.4
20260506222417 24 270 1.6 8.0 0.00 0.00 0.00 16 1014.4
20260506221416 23 293 8.0 12.9 0.00 0.00 0.00 16 1014.6
20260506220437 25 225 8.0 14.5 0.00 0.00 0.00 16 1014.8
20260506215416 24 248 8.0 16.1 0.00 0.00 0.00 16 1014.9
20260506214416 23 315 14.5 24.1 0.00 0.00 0.00 16 1014.9